Regional Weather Roundup
Issued by NWS Northern Indiana

Home | Current Version | Previous Version | Text Only | Print | Product List | Glossary On
Versions: 1 2 3 4 5 6 7 8 9 10 11 12 13 14 15 16 17 18 19 20 21 22 23 24 25 26 27 28 29 30 31 32 33 34 35 36 37 38 39 40 41 42 43 44 45 46 47 48 49 50
000
ASUS43 KIWX 290810
RWRIWX

KIWX WEATHER ROUNDUP
NATIONAL WEATHER SERVICE NORTHERN INDIANA
400 AM EDT SUN MAY 29 2016

NOTE: "FAIR" INDICATES FEW OR NO CLOUDS BELOW 12,000 FEET WITH NO
SIGNIFICANT WEATHER AND/OR OBSTRUCTIONS TO VISIBILITY.

* THESE STATIONS ARE NOT UNDER NWS QUALITY CONTROL. THEY ALSO MAY NOT
  REPORT WEATHER SUCH AS PRECIPITATION OR FOG.

INZ001>027-290900-
NORTHERN INDIANA

CITY           SKY/WX    TMP DP  RH WIND       PRES   REMARKS
GARY*          CLOUDY    69  62  79 S3        29.98S
VALPARAISO     CLOUDY    66  55  67 SW8       29.99S
MICHIGAN CITY* CLOUDY    64  55  72 S3        29.98R
LAPORTE*       CLOUDY    68  57  68 S6        29.99S
KNOX*          CLOUDY    64  52  63 SW8       30.00S
SOUTH BEND     CLOUDY    68  62  81 S8        29.99F
GOSHEN         CLOUDY    70  64  81 S10       30.02R
MONTICELLO*    MOCLDY    66  55  67 CALM      30.02S
LOGANSPORT*    PTCLDY    66  63  88 S6        30.05S
ROCHESTER*     FOG       72  68  88 S8        30.03F VSB 1/4
WARSAW*        CLOUDY    70  64  83 S5        30.03S
ANGOLA*          N/A     70  61  73 S6        30.03S
FORT WAYNE     CLOUDY    68  65  90 S8        30.05S
HUNTINGTON*    CLOUDY   N/A N/A N/A S5        30.04F
PERU/GRISSOM   MOCLDY    70  67  89 SW9       30.03S
MARION*        MOCLDY    68  65  89 S7        30.06F

$$
INZ028>050-290900-
CENTRAL INDIANA

CITY           SKY/WX    TMP DP  RH WIND       PRES   REMARKS
LAFAYETTE      CLOUDY    64  59  83 CALM      30.03F
KOKOMO*        PTCLDY    70  63  78 SW6       30.04F
MUNCIE*        MOCLDY    71  65  81 S3        30.08R
INDIANAPOLIS   MOCLDY    69  65  86 SE5       30.05R

$$
MIZ043>046-050>051-056>058-064>065-071>073-077>080-290900-
SOUTHWEST LOWER MICHIGAN

CITY           SKY/WX    TMP DP  RH WIND       PRES   REMARKS
BATTLE CREEK   CLOUDY    69  64  84 S9        30.01S
BENTON HARBOR  CLOUDY    66  61  84 SE5       29.95F
COLDWATER*     CLOUDY    71  64  79 SW6       30.02S
HILLSDALE*     MOCLDY    68  64  86 S7        30.04S
HOLLAND        PTCLDY    65  58  78 S7        29.96F
GRAND RAPIDS   CLOUDY    71  60  68 S5        29.98S
KALAMAZOO      PTCLDY    69  63  81 S9        30.00S
STURGIS*       MOCLDY    69  64  85 SW10      30.01S
THREE RIVERS*  FAIR      70  64  80 SW7       30.01S

$$
OHZ001>008-015>018-024>025-290900-
NORTHWEST OHIO

CITY           SKY/WX    TMP DP  RH WIND       PRES   REMARKS
WAUSEON*         N/A     68  68 100 S9        30.05S
DEFIANCE       MOCLDY    71  63  75 S7        30.05F
FINDLAY        CLOUDY    68  61  78 S8        30.07S
TOLEDO EXPRESS CLOUDY    68  62  81 S5        30.05S
TOLEDO METCALF PTCLDY    69  62  78 S7        30.06F
LIMA           CLOUDY    70  63  78 S7        30.08S

$$
AND FOR LAKE MICHIGAN COASTAL AND OPEN LAKE BUOY OBSERVATIONS

STATION/POSITION TEMP    WIND        PRES    VSBY  WAVE
                 AIR SEA DIR/SP/G                  HT/PER
                 (F)     (DEG/KT/KT) (MB)    (MI)  (FT/S)
CALUMET HARBOR    67     200/  6/  9 1013.7F
MICHIGAN CITY     71     190/ 10/ 11   N/A
BURNS HARBOR      70     170/  5/ 10 1014.9F
SAINT JOSEPH      68     130/  3/  6 1014.6F
SOUTH LAKE BUOY   54 50  170/  8/ 10 1013.3F         1/ 4
4 MI NW BRIDGMAN  64 61  180/  4/  6   N/A           1/ 3
MICHIGAN CITY     63 56  210/  8/ 10   N/A           1/ 3

$$
&&




USA.gov is the U.S. government's official web portal to all federal, state and local government web resources and services.